• în România
  • Lista ţărilor
  • Pe 7 zile
  • Temperatura apei
  • Hartă satelitară
  • Meteo pe hartă
  • Widget-uri
  • user-avatar
    Intrare

    Meteo pe oră la Neuquén

    Astăzi, 26 Martie, Duminică

    Timp Temperatura Precipitaţii Vânt Presiune Umiditate
    00:00 +23°C° 0,5 mm 2 m/s 731 mmHg 52%
    01:00 +21°C° 0 mm 3 m/s 731 mmHg 48%
    02:00 +21°C° 0,2 mm 3 m/s 731 mmHg 52%
    03:00 +20°C° 0,2 mm 3 m/s 731 mmHg 56%
    04:00 +20°C° 0,2 mm 2 m/s 731 mmHg 60%
    05:00 +20°C° 0 mm 3 m/s 731 mmHg 55%
    06:00 +20°C° 0 mm 3 m/s 731 mmHg 51%
    07:00 +21°C° 0 mm 4 m/s 731 mmHg 46%
    08:00 +22°C° 0,2 mm 4 m/s 732 mmHg 42%
    09:00 +25°C° 0,2 mm 4 m/s 732 mmHg 37%
    10:00 +26°C° 0,2 mm 4 m/s 732 mmHg 33%
    11:00 +27°C° 0 mm 3 m/s 732 mmHg 30%
    12:00 +28°C° 0 mm 3 m/s 732 mmHg 28%
    13:00 +29°C° 0 mm 3 m/s 731 mmHg 25%
    14:00 +29°C° 0 mm 3 m/s 731 mmHg 24%
    15:00 +29°C° 0 mm 3 m/s 731 mmHg 22%
    16:00 +29°C° 0 mm 3 m/s 731 mmHg 21%
    17:00 +28°C° 0 mm 4 m/s 732 mmHg 26%
    18:00 +26°C° 0 mm 4 m/s 732 mmHg 31%
    19:00 +23°C° 0 mm 5 m/s 732 mmHg 36%
    20:00 +23°C° 0 mm 5 m/s 733 mmHg 36%
    21:00 +22°C° 0 mm 5 m/s 733 mmHg 36%
    22:00 +21°C° 0 mm 5 m/s 734 mmHg 36%
    23:00 +21°C° 0 mm 5 m/s 734 mmHg 37%

    Mâine, 27 Martie, Luni

    Timp Temperatura Precipitaţii Vânt Presiune Umiditate
    00:00 +20°C° 0 mm 4 m/s 734 mmHg 38%
    01:00 +19°C° 0 mm 4 m/s 734 mmHg 39%
    02:00 +19°C° 0 mm 3 m/s 734 mmHg 40%
    03:00 +19°C° 0 mm 3 m/s 734 mmHg 40%
    04:00 +19°C° 0 mm 3 m/s 734 mmHg 40%
    05:00 +19°C° 0 mm 3 m/s 734 mmHg 39%
    06:00 +19°C° 0 mm 3 m/s 734 mmHg 38%
    07:00 +20°C° 0 mm 3 m/s 735 mmHg 37%
    08:00 +21°C° 0 mm 4 m/s 735 mmHg 34%
    09:00 +23°C° 0 mm 4 m/s 735 mmHg 31%
    10:00 +26°C° 0 mm 5 m/s 735 mmHg 28%
    11:00 +27°C° 0,2 mm 4 m/s 735 mmHg 31%
    12:00 +27°C° 0,2 mm 4 m/s 734 mmHg 34%
    13:00 +28°C° 0,2 mm 4 m/s 734 mmHg 37%
    14:00 +28°C° 0,3 mm 3 m/s 733 mmHg 40%
    15:00 +28°C° 0,3 mm 3 m/s 733 mmHg 42%
    16:00 +28°C° 0,3 mm 2 m/s 733 mmHg 45%
    17:00 +27°C° 0,4 mm 2 m/s 733 mmHg 50%
    18:00 +26°C° 0,4 mm 3 m/s 733 mmHg 56%
    19:00 +25°C° 0,4 mm 3 m/s 734 mmHg 61%
    20:00 +24°C° 0,5 mm 3 m/s 734 mmHg 66%
    21:00 +23°C° 0,5 mm 4 m/s 734 mmHg 70%
    22:00 +22°C° 0,5 mm 4 m/s 734 mmHg 75%
    23:00 +22°C° 0,5 mm 4 m/s 734 mmHg 77%

    Poimâine, 28 Martie, Marţi

    Timp Temperatura Precipitaţii Vânt Presiune Umiditate
    00:00 +22°C° 0,5 mm 5 m/s 734 mmHg 79%
    01:00 +22°C° 0,5 mm 5 m/s 734 mmHg 81%
    02:00 +21°C° 0 mm 4 m/s 734 mmHg 82%
    03:00 +21°C° 0 mm 4 m/s 734 mmHg 84%
    04:00 +21°C° 0 mm 4 m/s 734 mmHg 85%
    05:00 +21°C° 0 mm 4 m/s 734 mmHg 84%
    06:00 +21°C° 0 mm 5 m/s 734 mmHg 82%
    07:00 +22°C° 0 mm 6 m/s 734 mmHg 80%
    08:00 +23°C° 0 mm 6 m/s 734 mmHg 74%
    09:00 +26°C° 0 mm 6 m/s 735 mmHg 68%
    10:00 +27°C° 0 mm 7 m/s 735 mmHg 61%
    11:00 +28°C° 0,1 mm 7 m/s 734 mmHg 61%
    12:00 +28°C° 0,1 mm 7 m/s 734 mmHg 60%
    13:00 +29°C° 0,1 mm 7 m/s 733 mmHg 59%
    14:00 +29°C° 1,7 mm 8 m/s 733 mmHg 59%
    15:00 +29°C° 1,7 mm 8 m/s 732 mmHg 59%
    16:00 +29°C° 1,7 mm 8 m/s 732 mmHg 58%
    17:00 +28°C° 2,6 mm 7 m/s 732 mmHg 64%
    18:00 +26°C° 2,6 mm 6 m/s 732 mmHg 70%
    19:00 +24°C° 2,6 mm 6 m/s 732 mmHg 76%
    20:00 +24°C° 4,2 mm 6 m/s 732 mmHg 79%
    21:00 +23°C° 4,2 mm 6 m/s 733 mmHg 81%
    22:00 +23°C° 4,2 mm 6 m/s 733 mmHg 84%
    23:00 +23°C° 3,5 mm 6 m/s 732 mmHg 85%

    29 Martie, Miercuri

    Timp Temperatura Precipitaţii Vânt Presiune Umiditate
    00:00 +23°C° 3,5 mm 6 m/s 732 mmHg 86%
    01:00 +22°C° 3,5 mm 6 m/s 732 mmHg 87%
    02:00 +22°C° 0,9 mm 6 m/s 732 mmHg 88%
    03:00 +22°C° 0,9 mm 6 m/s 731 mmHg 89%
    04:00 +21°C° 0,9 mm 6 m/s 731 mmHg 90%
    05:00 +22°C° 1,3 mm 6 m/s 731 mmHg 89%
    06:00 +22°C° 1,3 mm 6 m/s 731 mmHg 89%
    07:00 +22°C° 1,3 mm 7 m/s 731 mmHg 89%
    08:00 +22°C° 1,1 mm 6 m/s 731 mmHg 85%
    09:00 +23°C° 1,1 mm 6 m/s 731 mmHg 82%
    10:00 +24°C° 1,1 mm 6 m/s 731 mmHg 78%
    11:00 +26°C° 0,2 mm 6 m/s 731 mmHg 75%
    12:00 +26°C° 0,2 mm 5 m/s 731 mmHg 71%
    13:00 +27°C° 0,2 mm 5 m/s 730 mmHg 68%
    14:00 +27°C° 0,4 mm 4 m/s 730 mmHg 66%
    15:00 +27°C° 0,4 mm 3 m/s 730 mmHg 65%
    16:00 +27°C° 0,4 mm 3 m/s 729 mmHg 63%
    17:00 +26°C° 1,7 mm 3 m/s 730 mmHg 68%
    18:00 +25°C° 1,7 mm 2 m/s 730 mmHg 73%
    19:00 +23°C° 1,7 mm 2 m/s 731 mmHg 78%
    20:00 +22°C° 0,6 mm 3 m/s 731 mmHg 71%
    21:00 +22°C° 0,6 mm 4 m/s 732 mmHg 64%
    22:00 +22°C° 0,6 mm 5 m/s 732 mmHg 57%
    23:00 +21°C° 0 mm 6 m/s 732 mmHg 53%

    30 Martie, Joi

    Timp Temperatura Precipitaţii Vânt Presiune Umiditate
    00:00 +20°C° 0 mm 7 m/s 732 mmHg 50%
    01:00 +18°C° 0 mm 9 m/s 732 mmHg 46%
    02:00 +17°C° 0 mm 8 m/s 732 mmHg 48%
    03:00 +16°C° 0 mm 8 m/s 732 mmHg 50%
    04:00 +16°C° 0 mm 8 m/s 732 mmHg 52%
    05:00 +16°C° 0 mm 8 m/s 732 mmHg 52%
    06:00 +16°C° 0 mm 8 m/s 733 mmHg 52%
    07:00 +16°C° 0 mm 7 m/s 733 mmHg 53%
    08:00 +17°C° 0 mm 8 m/s 733 mmHg 48%
    09:00 +18°C° 0 mm 8 m/s 733 mmHg 42%
    10:00 +21°C° 0 mm 9 m/s 733 mmHg 37%
    11:00 +22°C° 0 mm 8 m/s 733 mmHg 34%
    12:00 +23°C° 0 mm 8 m/s 732 mmHg 32%
    13:00 +24°C° 0 mm 7 m/s 732 mmHg 29%
    14:00 +23°C° 0 mm 7 m/s 732 mmHg 29%
    15:00 +23°C° 0 mm 6 m/s 732 mmHg 29%
    16:00 +23°C° 0 mm 6 m/s 732 mmHg 29%
    17:00 +22°C° 0 mm 5 m/s 732 mmHg 32%
    18:00 +20°C° 0 mm 4 m/s 733 mmHg 36%
    19:00 +19°C° 0 mm 2 m/s 733 mmHg 40%
    20:00 +19°C° 0 mm 2 m/s 733 mmHg 42%
    21:00 +18°C° 0 mm 2 m/s 734 mmHg 44%
    22:00 +18°C° 0 mm 2 m/s 734 mmHg 45%
    23:00 +18°C° 0 mm 2 m/s 734 mmHg 51%

    31 Martie, Vineri

    Timp Temperatura Precipitaţii Vânt Presiune Umiditate
    00:00 +17°C° 0 mm 2 m/s 734 mmHg 56%
    01:00 +17°C° 0 mm 2 m/s 734 mmHg 62%
    02:00 +17°C° 0 mm 2 m/s 734 mmHg 66%
    03:00 +16°C° 0 mm 2 m/s 734 mmHg 69%
    04:00 +16°C° 0 mm 2 m/s 734 mmHg 73%
    05:00 +16°C° 0 mm 3 m/s 734 mmHg 74%
    06:00 +17°C° 0 mm 3 m/s 735 mmHg 75%
    07:00 +17°C° 0 mm 4 m/s 735 mmHg 76%
    08:00 +19°C° 0 mm 4 m/s 735 mmHg 67%
    09:00 +20°C° 0 mm 5 m/s 736 mmHg 59%
    10:00 +22°C° 0 mm 5 m/s 736 mmHg 50%
    11:00 +23°C° 0 mm 6 m/s 736 mmHg 45%
    12:00 +24°C° 0 mm 6 m/s 735 mmHg 39%
    13:00 +26°C° 0 mm 6 m/s 735 mmHg 34%
    14:00 +26°C° 0 mm 6 m/s 735 mmHg 34%
    15:00 +26°C° 0 mm 6 m/s 735 mmHg 34%
    16:00 +24°C° 0 mm 7 m/s 735 mmHg 34%
    17:00 +23°C° 0 mm 7 m/s 735 mmHg 42%
    18:00 +21°C° 0 mm 7 m/s 736 mmHg 50%
    19:00 +20°C° 0 mm 7 m/s 736 mmHg 57%
    20:00 +18°C° 0 mm 7 m/s 736 mmHg 63%
    21:00 +18°C° 0 mm 7 m/s 736 mmHg 69%
    22:00 +17°C° 0 mm 8 m/s 737 mmHg 75%
    23:00 +17°C° 0,2 mm 7 m/s 737 mmHg 76%
    Arată mai mult